DW5575 Weather Reports


Display with metric or nautical units.
time (UTC)temp
F
wind
direction
speed
MPH
gust
MPH
rain 1hr
in
rain 24hr
in
rain mn
in
humidity
%
barometer
mb
20260504203033 84 227 1.0 7.0 0.00 0.00 0.00 52 1012.0
20260504201529 84 205 0.0 4.0 0.00 0.00 0.00 52 1012.4
20260504200027 85 27 0.0 4.0 0.00 0.00 0.00 50 1012.7
20260504194526 84 184 2.0 5.0 0.00 0.00 0.00 51 1012.8
20260504193023 84 263 1.0 5.0 0.00 0.00 0.00 51 1013.1
20260504191524 84 186 2.0 7.0 0.00 0.00 0.00 52 1013.2
20260504190021 84 30 1.0 9.0 0.00 0.00 0.00 49 1013.5
20260504184532 86 190 0.0 4.0 0.00 0.00 0.00 50 1013.6
20260504183014 84 232 1.0 5.0 0.00 0.00 0.00 50 1013.6
20260504181511 83 271 1.0 5.0 0.00 0.00 0.00 52 1013.8
20260504180009 83 247 1.0 8.0 0.00 0.00 0.00 52 1014.0
20260504174507 81 229 1.0 8.0 0.00 0.00 0.00 55 1014.3
20260504173012 82 182 1.0 3.0 0.00 0.00 0.00 52 1014.4
20260504171502 80 207 1.0 6.0 0.00 0.00 0.00 55 1014.8
20260504081555 60 250 0.0 0.0 0.00 0.00 0.00 75 1016.3
20260504044534 64 244 0.0 1.0 0.00 0.00 0.00 63 1018.4
20260504043028 65 244 0.0 1.0 0.00 0.00 0.00 62 1018.4
20260504041528 65 244 0.0 1.0 0.00 0.00 0.00 61 1018.5
20260504040027 66 244 0.0 1.0 0.00 0.00 0.00 61 1018.5
20260504034529 66 244 0.0 1.0 0.00 0.00 0.00 60 1018.4
20260504033025 67 245 0.0 1.0 0.00 0.00 0.00 59 1018.6
20260504031526 67 208 0.0 1.0 0.00 0.00 0.00 57 1018.4
20260504030026 68 208 0.0 1.0 0.00 0.00 0.00 56 1018.3
20260504024532 69 205 0.0 1.0 0.00 0.00 0.00 55 1018.2
20260504023023 69 32 0.0 1.0 0.00 0.00 0.00 52 1017.8
20260504021525 70 40 0.0 1.0 0.00 0.00 0.00 51 1017.9
20260504020022 70 213 0.0 3.0 0.00 0.00 0.00 50 1017.8
20260504014522 71 107 0.0 2.0 0.00 0.00 0.00 50 1017.7
20260504013032 71 307 0.0 1.0 0.00 0.00 0.00 49 1017.6
20260504011520 72 262 0.0 2.0 0.00 0.00 0.00 49 1017.4
20260504010019 73 271 0.0 2.0 0.00 0.00 0.00 47 1017.4
20260504004519 74 233 0.0 2.0 0.00 0.00 0.00 46 1017.4
20260504003034 75 280 0.0 1.0 0.00 0.00 0.00 44 1017.5
20260504001518 76 229 0.0 2.0 0.00 0.00 0.00 43 1017.4
20260504000017 77 360 0.0 2.0 0.00 0.00 0.00 40 1017.4
20260503234516 77 222 0.0 3.0 0.00 0.00 0.00 40 1017.6
20260503233015 77 223 0.0 4.0 0.00 0.00 0.00 39 1017.6
20260503231515 78 66 0.0 3.0 0.00 0.00 0.00 35 1017.8
20260503230013 78 212 1.0 4.0 0.00 0.00 0.00 35 1017.7
20260503224523 78 26 0.0 2.0 0.00 0.00 0.00 35 1018.0
20260503223011 78 254 0.0 5.0 0.00 0.00 0.00 35 1018.1
20260503221509 79 187 0.0 4.0 0.00 0.00 0.00 34 1018.4
20260503220017 79 306 1.0 4.0 0.00 0.00 0.00 33 1018.3
20260503214510 79 305 1.0 4.0 0.00 0.00 0.00 34 1018.4
20260503213005 79 213 0.0 2.0 0.00 0.00 0.00 35 1018.8
20260503211504 80 195 1.0 3.0 0.00 0.00 0.00 34 1019.0
20260503210002 81 88 1.0 3.0 0.00 0.00 0.00 33 1019.1
20260503204600 81 355 0.0 2.0 0.00 0.00 0.00 30 1019.3